Time,TemperatureF,DewpointF,PressureIn,WindDirection,WindDirectionDegrees,WindSpeedMPH,WindSpeedGustMPH,Humidity,HourlyPrecipIn,Conditions,Clouds,dailyrainin,SoftwareType,DateUTC
2013-04-06 00:01:00,59.3,36.2,29.59,SSW,196,11.0,16.0,42,0.00,,,0.00,WeatherCatV1.15B25,2013-04-06 05:01:00,
2013-04-06 00:06:00,59.2,36.1,29.59,SSE,161,4.0,13.0,42,0.00,,,0.00,WeatherCatV1.15B25,2013-04-06 05:06:00,
2013-04-06 00:11:00,59.2,36.7,29.59,South,180,11.0,11.0,43,0.00,,,0.00,WeatherCatV1.15B25,2013-04-06 05:11:00,
2013-04-06 00:16:00,58.9,36.4,29.59,South,190,5.0,7.0,43,0.00,,,0.00,WeatherCatV1.15B25,2013-04-06 05:16:00,
2013-04-06 00:22:00,58.7,36.8,29.59,SSW,198,10.0,11.0,44,0.00,,,0.00,WeatherCatV1.15B25,2013-04-06 05:22:00,
2013-04-06 00:27:00,58.7,36.8,29.59,SSE,167,10.0,12.0,44,0.00,,,0.00,WeatherCatV1.15B25,2013-04-06 05:27:00,
2013-04-06 00:32:00,58.7,36.8,29.58,South,171,6.0,19.0,44,0.00,,,0.00,WeatherCatV1.15B25,2013-04-06 05:32:00,
2013-04-06 00:37:00,58.6,36.8,29.58,SSE,150,6.0,17.0,44,0.00,,,0.00,WeatherCatV1.15B25,2013-04-06 05:37:00,
2013-04-06 00:42:00,58.4,37.1,29.58,South,182,2.0,16.0,45,0.00,,,0.00,WeatherCatV1.15B25,2013-04-06 05:42:00,
2013-04-06 00:47:00,58.3,37.1,29.58,South,184,16.0,16.0,45,0.00,,,0.00,WeatherCatV1.15B25,2013-04-06 05:47:00,
2013-04-06 00:52:00,58.3,37.1,29.58,SSW,192,3.0,11.0,45,0.00,,,0.00,WeatherCatV1.15B25,2013-04-06 05:52:00,
2013-04-06 00:57:00,58.1,37.4,29.58,South,171,10.0,13.0,46,0.00,,,0.00,WeatherCatV1.15B25,2013-04-06 05:57:00,
2013-04-06 01:02:00,58.0,37.3,29.58,South,187,7.0,11.0,46,0.00,,,0.00,WeatherCatV1.15B25,2013-04-06 06:02:00,
2013-04-06 01:07:00,57.8,37.7,29.58,South,177,4.0,9.0,47,0.00,,,0.00,WeatherCatV1.15B25,2013-04-06 06:07:00,
2013-04-06 01:12:00,57.6,37.5,29.58,SSE,167,8.0,8.0,47,0.00,,,0.00,WeatherCatV1.15B25,2013-04-06 06:12:00,
2013-04-06 01:17:00,57.6,37.5,29.57,SSE,168,2.0,15.0,47,0.00,,,0.00,WeatherCatV1.15B25,2013-04-06 06:17:00,
2013-04-06 01:22:00,57.5,37.4,29.57,South,182,9.0,9.0,47,0.00,,,0.00,WeatherCatV1.15B25,2013-04-06 06:22:00,
2013-04-06 01:27:00,57.5,38.0,29.57,South,171,10.0,14.0,48,0.00,,,0.00,WeatherCatV1.15B25,2013-04-06 06:27:00,
2013-04-06 01:32:00,57.5,38.0,29.57,South,172,3.0,8.0,48,0.00,,,0.00,WeatherCatV1.15B25,2013-04-06 06:32:00,
2013-04-06 01:37:00,57.5,38.0,29.57,South,169,6.0,13.0,48,0.00,,,0.00,WeatherCatV1.15B25,2013-04-06 06:37:00,
2013-04-06 01:42:00,57.5,38.0,29.57,SSE,162,10.0,14.0,48,0.00,,,0.00,WeatherCatV1.15B25,2013-04-06 06:42:00,
2013-04-06 01:47:00,57.5,38.0,29.57,South,177,4.0,6.0,48,0.00,,,0.00,WeatherCatV1.15B25,2013-04-06 06:47:00,
2013-04-06 01:52:00,57.5,38.0,29.57,South,174,6.0,15.0,48,0.00,,,0.00,WeatherCatV1.15B25,2013-04-06 06:52:00,
2013-04-06 01:57:00,57.6,38.1,29.57,South,182,4.0,6.0,48,0.00,,,0.00,WeatherCatV1.15B25,2013-04-06 06:57:00,
2013-04-06 02:02:00,57.6,38.1,29.57,South,174,4.0,11.0,48,0.00,,,0.00,WeatherCatV1.15B25,2013-04-06 07:02:00,
2013-04-06 02:07:00,57.6,38.1,29.57,SSE,159,5.0,9.0,48,0.00,,,0.00,WeatherCatV1.15B25,2013-04-06 07:07:00,
2013-04-06 02:12:00,57.8,38.2,29.57,South,175,8.0,9.0,48,0.00,,,0.00,WeatherCatV1.15B25,2013-04-06 07:12:00,
2013-04-06 02:17:00,57.8,38.2,29.56,South,191,4.0,10.0,48,0.00,,,0.00,WeatherCatV1.15B25,2013-04-06 07:17:00,
2013-04-06 02:22:00,57.8,38.2,29.56,SSW,196,4.0,16.0,48,0.00,,,0.00,WeatherCatV1.15B25,2013-04-06 07:22:00,
2013-04-06 02:27:00,57.8,38.2,29.56,SE,142,5.0,12.0,48,0.00,,,0.00,WeatherCatV1.15B25,2013-04-06 07:27:00,
2013-04-06 02:32:00,57.6,38.1,29.55,South,189,12.0,16.0,48,0.00,,,0.00,WeatherCatV1.15B25,2013-04-06 07:32:00,
2013-04-06 02:37:00,57.6,38.1,29.55,South,182,0.0,7.0,48,0.00,,,0.00,WeatherCatV1.15B25,2013-04-06 07:37:00,
2013-04-06 02:42:00,57.5,38.5,29.55,SSW,192,6.0,10.0,49,0.00,,,0.00,WeatherCatV1.15B25,2013-04-06 07:42:00,
2013-04-06 02:47:00,57.5,38.5,29.55,South,181,4.0,10.0,49,0.00,,,0.00,WeatherCatV1.15B25,2013-04-06 07:47:00,
2013-04-06 02:52:00,57.3,38.3,29.55,South,186,5.0,15.0,49,0.00,,,0.00,WeatherCatV1.15B25,2013-04-06 07:52:00,
2013-04-06 02:57:00,57.2,38.7,29.55,South,174,11.0,15.0,50,0.00,,,0.00,WeatherCatV1.15B25,2013-04-06 07:57:00,
2013-04-06 03:02:00,57.2,38.7,29.54,SSE,160,4.0,6.0,50,0.00,,,0.00,WeatherCatV1.15B25,2013-04-06 08:02:00,
2013-04-06 03:07:00,57.0,38.5,29.54,South,175,4.0,15.0,50,0.00,,,0.00,WeatherCatV1.15B25,2013-04-06 08:07:00,
2013-04-06 03:12:00,56.9,39.0,29.54,South,190,6.0,9.0,51,0.00,,,0.00,WeatherCatV1.15B25,2013-04-06 08:12:00,
2013-04-06 03:17:00,56.9,39.0,29.54,SSE,162,9.0,14.0,51,0.00,,,0.00,WeatherCatV1.15B25,2013-04-06 08:17:00,
2013-04-06 03:22:00,56.7,38.8,29.54,South,188,5.0,11.0,51,0.00,,,0.00,WeatherCatV1.15B25,2013-04-06 08:22:00,
2013-04-06 03:27:00,56.6,39.2,29.54,South,170,5.0,13.0,52,0.00,,,0.00,WeatherCatV1.15B25,2013-04-06 08:27:00,
2013-04-06 03:32:00,56.6,39.2,29.54,South,181,5.0,12.0,52,0.00,,,0.00,WeatherCatV1.15B25,2013-04-06 08:32:00,
2013-04-06 03:37:00,56.5,39.1,29.54,South,176,5.0,9.0,52,0.00,,,0.00,WeatherCatV1.15B25,2013-04-06 08:37:00,
2013-04-06 03:42:00,56.5,39.6,29.54,South,170,7.0,9.0,53,0.00,,,0.00,WeatherCatV1.15B25,2013-04-06 08:42:00,
2013-04-06 03:47:00,56.3,39.4,29.53,SSE,168,1.0,6.0,53,0.00,,,0.00,WeatherCatV1.15B25,2013-04-06 08:47:00,
2013-04-06 03:52:00,56.2,39.3,29.53,SSW,198,9.0,15.0,53,0.00,,,0.00,WeatherCatV1.15B25,2013-04-06 08:52:00,
2013-04-06 03:57:00,56.0,39.6,29.53,SSE,157,4.0,12.0,54,0.00,,,0.00,WeatherCatV1.15B25,2013-04-06 08:57:00,
2013-04-06 04:02:00,55.9,39.5,29.53,South,171,1.0,6.0,54,0.00,,,0.00,WeatherCatV1.15B25,2013-04-06 09:02:00,
2013-04-06 04:07:00,55.7,39.3,29.53,SSE,168,3.0,11.0,54,0.00,,,0.00,WeatherCatV1.15B25,2013-04-06 09:07:00,
2013-04-06 04:12:00,55.6,39.7,29.53,South,173,1.0,6.0,55,0.00,,,0.00,WeatherCatV1.15B25,2013-04-06 09:12:00,
2013-04-06 04:17:00,55.6,39.7,29.53,SSE,156,0.0,7.0,55,0.00,,,0.00,WeatherCatV1.15B25,2013-04-06 09:17:00,
2013-04-06 04:22:00,55.4,39.5,29.53,SW,219,6.0,6.0,55,0.00,,,0.00,WeatherCatV1.15B25,2013-04-06 09:22:00,
2013-04-06 04:27:00,55.3,39.9,29.53,SSE,167,1.0,6.0,56,0.00,,,0.00,WeatherCatV1.15B25,2013-04-06 09:27:00,
2013-04-06 04:32:00,55.1,39.7,29.52,South,180,4.0,13.0,56,0.00,,,0.00,WeatherCatV1.15B25,2013-04-06 09:32:00,
2013-04-06 04:37:00,55.0,40.0,29.52,SSE,166,3.0,10.0,57,0.00,,,0.00,WeatherCatV1.15B25,2013-04-06 09:37:00,
2013-04-06 04:42:00,54.8,39.9,29.52,SSE,159,4.0,10.0,57,0.00,,,0.00,WeatherCatV1.15B25,2013-04-06 09:42:00,
2013-04-06 04:47:00,54.8,39.9,29.52,SSE,167,6.0,8.0,57,0.00,,,0.00,WeatherCatV1.15B25,2013-04-06 09:47:00,
2013-04-06 04:52:00,54.7,39.8,29.52,South,175,7.0,11.0,57,0.00,,,0.00,WeatherCatV1.15B25,2013-04-06 09:52:00,
2013-04-06 04:57:00,54.5,40.0,29.52,SSW,192,7.0,7.0,58,0.00,,,0.00,WeatherCatV1.15B25,2013-04-06 09:57:00,
2013-04-06 05:02:00,54.5,40.0,29.51,South,173,4.0,7.0,58,0.00,,,0.00,WeatherCatV1.15B25,2013-04-06 10:02:00,
2013-04-06 05:07:00,54.4,39.9,29.51,South,169,3.0,6.0,58,0.00,,,0.00,WeatherCatV1.15B25,2013-04-06 10:07:00,
2013-04-06 05:12:00,54.2,40.2,29.51,South,182,2.0,11.0,59,0.00,,,0.00,WeatherCatV1.15B25,2013-04-06 10:12:00,
2013-04-06 05:17:00,54.1,40.1,29.50,South,178,0.0,9.0,59,0.00,,,0.00,WeatherCatV1.15B25,2013-04-06 10:17:00,
2013-04-06 05:22:00,54.1,40.1,29.50,South,171,7.0,9.0,59,0.00,,,0.00,WeatherCatV1.15B25,2013-04-06 10:22:00,
2013-04-06 05:27:00,53.9,40.3,29.50,South,169,1.0,7.0,60,0.00,,,0.00,WeatherCatV1.15B25,2013-04-06 10:27:00,
2013-04-06 05:32:00,53.8,40.2,29.50,South,171,2.0,6.0,60,0.00,,,0.00,WeatherCatV1.15B25,2013-04-06 10:32:00,
2013-04-06 05:37:00,53.6,40.1,29.50,SSE,165,2.0,6.0,60,0.00,,,0.00,WeatherCatV1.15B25,2013-04-06 10:37:00,
2013-04-06 05:42:00,53.5,40.4,29.50,South,175,4.0,7.0,61,0.00,,,0.00,WeatherCatV1.15B25,2013-04-06 10:42:00,
2013-04-06 05:47:00,53.3,40.2,29.49,SSE,165,2.0,8.0,61,0.00,,,0.00,WeatherCatV1.15B25,2013-04-06 10:47:00,
2013-04-06 05:52:00,53.2,40.5,29.49,South,177,0.0,6.0,62,0.00,,,0.00,WeatherCatV1.15B25,2013-04-06 10:52:00,
2013-04-06 05:57:00,53.1,40.4,29.49,SSE,166,2.0,11.0,62,0.00,,,0.00,WeatherCatV1.15B25,2013-04-06 10:57:00,
2013-04-06 06:02:00,52.9,40.2,29.50,South,183,5.0,5.0,62,0.00,,,0.00,WeatherCatV1.15B25,2013-04-06 11:02:00,
2013-04-06 06:07:00,52.8,40.6,29.50,SSE,168,5.0,9.0,63,0.00,,,0.00,WeatherCatV1.15B25,2013-04-06 11:07:00,
2013-04-06 06:12:00,52.8,40.6,29.50,South,175,2.0,7.0,63,0.00,,,0.00,WeatherCatV1.15B25,2013-04-06 11:12:00,
2013-04-06 06:17:00,52.6,40.8,29.49,South,185,2.0,7.0,64,0.00,,,0.00,WeatherCatV1.15B25,2013-04-06 11:17:00,
2013-04-06 06:22:00,52.5,40.7,29.49,SSE,168,2.0,11.0,64,0.00,,,0.00,WeatherCatV1.15B25,2013-04-06 11:22:00,
2013-04-06 06:27:00,52.3,40.5,29.49,SSE,157,4.0,5.0,64,0.00,,,0.00,WeatherCatV1.15B25,2013-04-06 11:27:00,
2013-04-06 06:32:00,52.2,40.8,29.48,SSE,168,8.0,8.0,65,0.00,,,0.00,WeatherCatV1.15B25,2013-04-06 11:32:00,
2013-04-06 06:34:00,52.2,40.8,29.48,South,171,3.0,8.0,65,0.00,,,0.00,WeatherCatV1.15B25,2013-04-06 11:34:00,
2013-04-06 06:39:00,52.2,40.8,29.48,South,175,5.0,9.0,65,0.00,,,0.00,WeatherCatV1.15B25,2013-04-06 11:39:00,
2013-04-06 06:44:00,52.2,40.8,29.47,South,175,0.0,7.0,65,0.00,,,0.00,WeatherCatV1.15B25,2013-04-06 11:44:00,
2013-04-06 06:49:00,52.0,40.6,29.47,South,175,4.0,5.0,65,0.00,,,0.00,WeatherCatV1.15B25,2013-04-06 11:49:00,
2013-04-06 06:54:00,51.9,40.9,29.47,SSE,155,6.0,7.0,66,0.00,,,0.00,WeatherCatV1.15B25,2013-04-06 11:54:00,
2013-04-06 06:59:00,52.0,41.0,29.47,SSE,159,3.0,7.0,66,0.00,,,0.00,WeatherCatV1.15B25,2013-04-06 11:59:00,
2013-04-06 07:04:00,52.0,41.0,29.47,South,182,3.0,11.0,66,0.00,,,0.00,WeatherCatV1.15B25,2013-04-06 12:04:00,
2013-04-06 07:09:00,52.0,41.0,29.47,SSE,167,3.0,4.0,66,0.00,,,0.00,WeatherCatV1.15B25,2013-04-06 12:09:00,
2013-04-06 07:14:00,52.2,41.2,29.48,South,169,5.0,6.0,66,0.00,,,0.00,WeatherCatV1.15B25,2013-04-06 12:14:00,
2013-04-06 07:19:00,52.3,41.3,29.48,SSE,163,4.0,10.0,66,0.00,,,0.00,WeatherCatV1.15B25,2013-04-06 12:19:00,
2013-04-06 07:24:00,52.5,41.5,29.48,South,184,5.0,9.0,66,0.00,,,0.00,WeatherCatV1.15B25,2013-04-06 12:24:00,
2013-04-06 07:29:00,52.5,41.5,29.49,South,178,2.0,11.0,66,0.00,,,0.00,WeatherCatV1.15B25,2013-04-06 12:29:00,
2013-04-06 07:34:00,52.6,41.2,29.49,SSE,167,7.0,7.0,65,0.00,,,0.00,WeatherCatV1.15B25,2013-04-06 12:34:00,
2013-04-06 07:39:00,52.8,41.4,29.49,South,169,5.0,11.0,65,0.00,,,0.00,WeatherCatV1.15B25,2013-04-06 12:39:00,
2013-04-06 07:44:00,52.9,41.5,29.48,SSE,167,4.0,6.0,65,0.00,,,0.00,WeatherCatV1.15B25,2013-04-06 12:44:00,
2013-04-06 07:49:00,52.9,41.5,29.48,South,169,3.0,4.0,65,0.00,,,0.00,WeatherCatV1.15B25,2013-04-06 12:49:00,
2013-04-06 07:54:00,52.9,41.5,29.48,South,174,6.0,7.0,65,0.00,,,0.00,WeatherCatV1.15B25,2013-04-06 12:54:00,
2013-04-06 07:59:00,53.1,41.6,29.48,South,186,9.0,10.0,65,0.00,,,0.00,WeatherCatV1.15B25,2013-04-06 12:59:00,
2013-04-06 08:04:00,53.1,42.0,29.48,South,174,4.0,9.0,66,0.00,,,0.00,WeatherCatV1.15B25,2013-04-06 13:04:00,
2013-04-06 08:09:00,53.2,42.1,29.48,South,171,6.0,7.0,66,0.00,,,0.00,WeatherCatV1.15B25,2013-04-06 13:09:00,
2013-04-06 08:14:00,53.3,41.8,29.48,South,175,7.0,11.0,65,0.00,,,0.00,WeatherCatV1.15B25,2013-04-06 13:14:00,
2013-04-06 08:19:00,53.5,42.0,29.48,South,185,6.0,6.0,65,0.00,,,0.00,WeatherCatV1.15B25,2013-04-06 13:19:00,
2013-04-06 08:24:00,53.6,42.1,29.48,SSE,165,2.0,6.0,65,0.00,,,0.00,WeatherCatV1.15B25,2013-04-06 13:24:00,
2013-04-06 08:29:00,53.8,42.3,29.48,SSE,167,1.0,12.0,65,0.00,,,0.00,WeatherCatV1.15B25,2013-04-06 13:29:00,
2013-04-06 08:34:00,53.9,42.4,29.48,SSE,167,6.0,11.0,65,0.00,,,0.00,WeatherCatV1.15B25,2013-04-06 13:34:00,
2013-04-06 08:39:00,53.9,42.4,29.48,South,185,5.0,10.0,65,0.00,,,0.00,WeatherCatV1.15B25,2013-04-06 13:39:00,
2013-04-06 08:44:00,54.1,42.6,29.48,South,188,1.0,5.0,65,0.00,,,0.00,WeatherCatV1.15B25,2013-04-06 13:44:00,
2013-04-06 08:49:00,54.2,42.7,29.48,South,171,5.0,6.0,65,0.00,,,0.00,WeatherCatV1.15B25,2013-04-06 13:49:00,
2013-04-06 08:54:00,54.4,42.9,29.48,South,188,4.0,9.0,65,0.00,,,0.00,WeatherCatV1.15B25,2013-04-06 13:54:00,
2013-04-06 08:59:00,54.5,43.0,29.48,South,183,4.0,9.0,65,0.00,,,0.00,WeatherCatV1.15B25,2013-04-06 13:59:00,
2013-04-06 09:04:00,54.7,43.2,29.48,SSW,203,9.0,11.0,65,0.00,,,0.00,WeatherCatV1.15B25,2013-04-06 14:04:00,
2013-04-06 09:09:00,54.8,43.3,29.48,SSW,197,5.0,10.0,65,0.00,,,0.00,WeatherCatV1.15B25,2013-04-06 14:09:00,
2013-04-06 09:14:00,55.0,43.5,29.48,SW,219,6.0,10.0,65,0.00,,,0.00,WeatherCatV1.15B25,2013-04-06 14:14:00,
2013-04-06 09:19:00,55.3,43.3,29.48,South,171,5.0,10.0,64,0.00,,,0.00,WeatherCatV1.15B25,2013-04-06 14:19:00,
2013-04-06 09:24:00,55.6,43.6,29.48,South,180,2.0,14.0,64,0.00,,,0.00,WeatherCatV1.15B25,2013-04-06 14:24:00,
2013-04-06 09:29:00,55.9,43.9,29.47,South,175,4.0,11.0,64,0.00,,,0.00,WeatherCatV1.15B25,2013-04-06 14:29:00,
2013-04-06 09:34:00,56.3,44.3,29.47,SSW,193,2.0,13.0,64,0.00,,,0.00,WeatherCatV1.15B25,2013-04-06 14:34:00,
2013-04-06 09:39:00,56.6,44.6,29.47,WSW,238,0.0,16.0,64,0.00,,,0.00,WeatherCatV1.15B25,2013-04-06 14:39:00,
2013-04-06 09:44:00,57.0,44.1,29.47,South,188,3.0,13.0,62,0.00,,,0.00,WeatherCatV1.15B25,2013-04-06 14:44:00,
2013-04-06 09:49:00,57.6,44.2,29.47,SSW,207,6.0,11.0,61,0.00,,,0.00,WeatherCatV1.15B25,2013-04-06 14:49:00,
2013-04-06 09:54:00,58.1,44.7,29.47,SSW,209,6.0,11.0,61,0.00,,,0.00,WeatherCatV1.15B25,2013-04-06 14:54:00,
2013-04-06 09:59:00,58.6,44.8,29.46,South,190,5.0,11.0,60,0.00,,,0.00,WeatherCatV1.15B25,2013-04-06 14:59:00,
2013-04-06 10:04:00,58.4,44.6,29.46,SSW,194,1.0,4.0,60,0.00,,,0.00,WeatherCatV1.15B25,2013-04-06 15:04:00,
2013-04-06 10:09:00,58.3,44.5,29.46,SW,216,6.0,6.0,60,0.00,,,0.00,WeatherCatV1.15B25,2013-04-06 15:09:00,
2013-04-06 10:14:00,58.0,44.6,29.46,WSW,255,6.0,6.0,61,0.00,,,0.00,WeatherCatV1.15B25,2013-04-06 15:14:00,
2013-04-06 10:19:00,57.8,44.4,29.46,SW,219,0.0,4.0,61,0.00,,,0.00,WeatherCatV1.15B25,2013-04-06 15:19:00,
2013-04-06 10:24:00,57.8,44.4,29.46,West,261,2.0,5.0,61,0.00,,,0.00,WeatherCatV1.15B25,2013-04-06 15:24:00,
2013-04-06 10:29:00,58.0,45.1,29.46,WSW,251,0.0,1.0,62,0.00,,,0.00,WeatherCatV1.15B25,2013-04-06 15:29:00,
2013-04-06 10:34:00,58.1,45.1,29.46,West,259,2.0,7.0,62,0.00,,,0.00,WeatherCatV1.15B25,2013-04-06 15:34:00,
2013-04-06 10:39:00,58.0,45.1,29.46,West,261,9.0,10.0,62,0.00,,,0.00,WeatherCatV1.15B25,2013-04-06 15:39:00,
2013-04-06 10:44:00,58.1,44.7,29.48,SW,233,2.0,6.0,61,0.00,,,0.00,WeatherCatV1.15B25,2013-04-06 15:44:00,
2013-04-06 10:49:00,58.3,44.5,29.48,WNW,296,6.0,6.0,60,0.00,,,0.00,WeatherCatV1.15B25,2013-04-06 15:49:00,
2013-04-06 10:55:00,57.8,44.0,29.48,WSW,253,3.0,11.0,60,0.00,,,0.00,WeatherCatV1.15B25,2013-04-06 15:55:00,
2013-04-06 11:00:00,57.2,43.0,29.48,West,264,4.0,11.0,59,0.00,,,0.00,WeatherCatV1.15B25,2013-04-06 16:00:00,
2013-04-06 11:05:00,57.0,42.4,29.48,West,271,2.0,6.0,58,0.00,,,0.00,WeatherCatV1.15B25,2013-04-06 16:05:00,
2013-04-06 11:10:00,56.9,41.4,29.48,West,259,12.0,12.0,56,0.00,,,0.00,WeatherCatV1.15B25,2013-04-06 16:10:00,
2013-04-06 11:15:00,56.6,39.7,29.49,West,268,8.0,15.0,53,0.00,,,0.00,WeatherCatV1.15B25,2013-04-06 16:15:00,
2013-04-06 11:20:00,56.5,39.1,29.49,WNW,302,11.0,14.0,52,0.00,,,0.00,WeatherCatV1.15B25,2013-04-06 16:20:00,
2013-04-06 11:25:00,56.9,39.0,29.49,NW,316,2.0,7.0,51,0.00,,,0.00,WeatherCatV1.15B25,2013-04-06 16:25:00,
2013-04-06 11:30:00,57.2,37.2,29.49,NW,311,2.0,5.0,47,0.00,,,0.00,WeatherCatV1.15B25,2013-04-06 16:30:00,
2013-04-06 11:35:00,56.9,37.4,29.49,NW,317,6.0,9.0,48,0.00,,,0.00,WeatherCatV1.15B25,2013-04-06 16:35:00,
2013-04-06 11:40:00,56.7,37.2,29.49,WSW,252,8.0,9.0,48,0.00,,,0.00,WeatherCatV1.15B25,2013-04-06 16:40:00,
2013-04-06 11:45:00,56.7,37.2,29.50,NNW,330,0.0,4.0,48,0.00,,,0.00,WeatherCatV1.15B25,2013-04-06 16:45:00,
2013-04-06 11:50:00,57.0,37.0,29.50,WNW,294,7.0,9.0,47,0.00,,,0.00,WeatherCatV1.15B25,2013-04-06 16:50:00,
2013-04-06 11:55:00,56.9,36.9,29.50,NW,305,5.0,10.0,47,0.00,,,0.00,WeatherCatV1.15B25,2013-04-06 16:55:00,
2013-04-06 12:00:00,56.6,36.1,29.49,West,262,0.0,7.0,46,0.00,,,0.00,WeatherCatV1.15B25,2013-04-06 17:00:00,
2013-04-06 12:05:00,56.3,35.8,29.49,WSW,248,5.0,5.0,46,0.00,,,0.00,WeatherCatV1.15B25,2013-04-06 17:05:00,
2013-04-06 12:10:00,56.0,36.1,29.49,West,263,0.0,7.0,47,0.00,,,0.00,WeatherCatV1.15B25,2013-04-06 17:10:00,
2013-04-06 12:15:00,55.9,36.5,29.51,West,266,4.0,6.0,48,0.00,,,0.00,WeatherCatV1.15B25,2013-04-06 17:15:00,
2013-04-06 12:20:00,55.9,37.0,29.51,WSW,241,0.0,9.0,49,0.00,,,0.00,WeatherCatV1.15B25,2013-04-06 17:20:00,
2013-04-06 12:25:00,56.2,36.8,29.51,West,274,4.0,7.0,48,0.00,,,0.00,WeatherCatV1.15B25,2013-04-06 17:25:00,
2013-04-06 12:30:00,56.3,36.9,29.51,WSW,254,6.0,9.0,48,0.00,,,0.00,WeatherCatV1.15B25,2013-04-06 17:30:00,
2013-04-06 12:35:00,56.3,37.9,29.51,West,273,6.0,6.0,50,0.00,,,0.00,WeatherCatV1.15B25,2013-04-06 17:35:00,
2013-04-06 12:40:00,56.5,38.1,29.51,West,271,6.0,16.0,50,0.00,,,0.00,WeatherCatV1.15B25,2013-04-06 17:40:00,
2013-04-06 12:45:00,56.7,38.8,29.53,WNW,290,12.0,12.0,51,0.00,,,0.00,WeatherCatV1.15B25,2013-04-06 17:45:00,
2013-04-06 12:50:00,57.0,38.0,29.53,WSW,258,5.0,12.0,49,0.00,,,0.00,WeatherCatV1.15B25,2013-04-06 17:50:00,
2013-04-06 12:55:00,56.9,37.9,29.53,West,260,4.0,7.0,49,0.00,,,0.00,WeatherCatV1.15B25,2013-04-06 17:55:00,
2013-04-06 13:00:00,56.9,37.9,29.53,WNW,284,1.0,11.0,49,0.00,,,0.00,WeatherCatV1.15B25,2013-04-06 18:00:00,
2013-04-06 13:05:00,57.5,38.5,29.53,NW,323,4.0,6.0,49,0.00,,,0.00,WeatherCatV1.15B25,2013-04-06 18:05:00,
2013-04-06 13:10:00,58.0,38.9,29.53,NNW,329,6.0,11.0,49,0.00,,,0.00,WeatherCatV1.15B25,2013-04-06 18:10:00,
2013-04-06 13:15:00,58.3,38.7,29.53,WNW,282,0.0,6.0,48,0.00,,,0.00,WeatherCatV1.15B25,2013-04-06 18:15:00,
2013-04-06 13:20:00,58.7,39.1,29.53,West,269,5.0,10.0,48,0.00,,,0.00,WeatherCatV1.15B25,2013-04-06 18:20:00,
2013-04-06 13:25:00,59.0,39.3,29.53,West,269,6.0,11.0,48,0.00,,,0.00,WeatherCatV1.15B25,2013-04-06 18:25:00,
2013-04-06 13:30:00,59.5,40.3,29.53,WNW,292,6.0,9.0,49,0.00,,,0.00,WeatherCatV1.15B25,2013-04-06 18:30:00,
2013-04-06 13:35:00,59.5,39.8,29.53,West,263,4.0,14.0,48,0.00,,,0.00,WeatherCatV1.15B25,2013-04-06 18:35:00,
2013-04-06 13:40:00,59.9,40.2,29.53,WSW,250,1.0,6.0,48,0.00,,,0.00,WeatherCatV1.15B25,2013-04-06 18:40:00,
2013-04-06 13:45:00,60.7,39.8,29.52,NW,319,4.0,5.0,46,0.00,,,0.00,WeatherCatV1.15B25,2013-04-06 18:45:00,
2013-04-06 13:50:00,61.3,39.2,29.52,WNW,301,4.0,7.0,44,0.00,,,0.00,WeatherCatV1.15B25,2013-04-06 18:50:00,
2013-04-06 13:55:00,62.1,38.7,29.52,NNW,330,5.0,6.0,42,0.00,,,0.00,WeatherCatV1.15B25,2013-04-06 18:55:00,
2013-04-06 14:00:00,62.4,39.6,29.51,West,265,4.0,4.0,43,0.00,,,0.00,WeatherCatV1.15B25,2013-04-06 19:00:00,
2013-04-06 14:05:00,62.7,39.3,29.51,NNW,336,0.0,9.0,42,0.00,,,0.00,WeatherCatV1.15B25,2013-04-06 19:05:00,
2013-04-06 14:10:00,62.9,39.5,29.51,NW,305,0.0,11.0,42,0.00,,,0.00,WeatherCatV1.15B25,2013-04-06 19:10:00,
2013-04-06 14:15:00,63.4,39.3,29.51,West,271,4.0,7.0,41,0.00,,,0.00,WeatherCatV1.15B25,2013-04-06 19:15:00,
2013-04-06 14:20:00,64.2,40.0,29.51,NW,313,2.0,6.0,41,0.00,,,0.00,WeatherCatV1.15B25,2013-04-06 19:20:00,
2013-04-06 14:25:00,65.0,38.8,29.51,NW,321,2.0,15.0,38,0.00,,,0.00,WeatherCatV1.15B25,2013-04-06 19:25:00,
2013-04-06 14:30:00,65.5,39.2,29.50,NW,322,16.0,17.0,38,0.00,,,0.00,WeatherCatV1.15B25,2013-04-06 19:30:00,
2013-04-06 14:35:00,66.0,38.3,29.50,WNW,289,0.0,13.0,36,0.00,,,0.00,WeatherCatV1.15B25,2013-04-06 19:35:00,
2013-04-06 14:40:00,66.4,37.9,29.50,WSW,258,9.0,10.0,35,0.00,,,0.00,WeatherCatV1.15B25,2013-04-06 19:40:00,
2013-04-06 14:45:00,66.9,37.6,29.50,NW,308,3.0,13.0,34,0.00,,,0.00,WeatherCatV1.15B25,2013-04-06 19:45:00,
2013-04-06 14:50:00,67.3,38.7,29.50,NW,313,6.0,11.0,35,0.00,,,0.00,WeatherCatV1.15B25,2013-04-06 19:50:00,
2013-04-06 14:55:00,67.6,37.5,29.50,West,263,6.0,12.0,33,0.00,,,0.00,WeatherCatV1.15B25,2013-04-06 19:55:00,
2013-04-06 15:00:00,67.9,37.7,29.50,NNW,331,3.0,12.0,33,0.00,,,0.00,WeatherCatV1.15B25,2013-04-06 20:00:00,
2013-04-06 15:05:00,67.8,38.4,29.50,WNW,296,4.0,17.0,34,0.00,,,0.00,WeatherCatV1.15B25,2013-04-06 20:05:00,
2013-04-06 15:10:00,67.8,37.6,29.50,West,273,0.0,9.0,33,0.00,,,0.00,WeatherCatV1.15B25,2013-04-06 20:10:00,
2013-04-06 15:15:00,68.4,38.2,29.49,NW,323,6.0,12.0,33,0.00,,,0.00,WeatherCatV1.15B25,2013-04-06 20:15:00,
2013-04-06 15:20:00,68.9,37.0,29.49,West,274,4.0,14.0,31,0.00,,,0.00,WeatherCatV1.15B25,2013-04-06 20:20:00,
2013-04-06 15:25:00,69.4,35.8,29.49,NNW,331,3.0,7.0,29,0.00,,,0.00,WeatherCatV1.15B25,2013-04-06 20:25:00,
2013-04-06 15:30:00,69.3,34.8,29.49,NW,317,13.0,17.0,28,0.00,,,0.00,WeatherCatV1.15B25,2013-04-06 20:30:00,
2013-04-06 15:35:00,68.6,36.8,29.49,NW,313,4.0,10.0,31,0.00,,,0.00,WeatherCatV1.15B25,2013-04-06 20:35:00,
2013-04-06 15:40:00,69.3,35.7,29.49,NW,313,6.0,10.0,29,0.00,,,0.00,WeatherCatV1.15B25,2013-04-06 20:40:00,
2013-04-06 15:45:00,69.8,36.1,29.49,WNW,302,3.0,10.0,29,0.00,,,0.00,WeatherCatV1.15B25,2013-04-06 20:45:00,
2013-04-06 15:50:00,69.8,36.1,29.49,West,279,4.0,7.0,29,0.00,,,0.00,WeatherCatV1.15B25,2013-04-06 20:50:00,
2013-04-06 15:55:00,69.8,36.1,29.49,WNW,296,2.0,11.0,29,0.00,,,0.00,WeatherCatV1.15B25,2013-04-06 20:55:00,
2013-04-06 16:00:00,70.1,34.6,29.50,West,273,6.0,13.0,27,0.00,,,0.00,WeatherCatV1.15B25,2013-04-06 21:00:00,
2013-04-06 16:05:00,70.3,35.6,29.50,WNW,282,4.0,9.0,28,0.00,,,0.00,WeatherCatV1.15B25,2013-04-06 21:05:00,
2013-04-06 16:10:00,69.9,35.3,29.50,NNW,329,6.0,11.0,28,0.00,,,0.00,WeatherCatV1.15B25,2013-04-06 21:10:00,
2013-04-06 16:15:00,69.9,34.4,29.50,WSW,247,5.0,9.0,27,0.00,,,0.00,WeatherCatV1.15B25,2013-04-06 21:15:00,
2013-04-06 16:20:00,70.3,34.7,29.50,NNW,348,12.0,13.0,27,0.00,,,0.00,WeatherCatV1.15B25,2013-04-06 21:20:00,
2013-04-06 16:25:00,70.4,34.8,29.50,WNW,302,9.0,13.0,27,0.00,,,0.00,WeatherCatV1.15B25,2013-04-06 21:25:00,
2013-04-06 16:30:00,70.4,33.9,29.52,NW,310,7.0,12.0,26,0.00,,,0.00,WeatherCatV1.15B25,2013-04-06 21:30:00,
2013-04-06 16:35:00,70.8,34.2,29.52,WNW,290,5.0,9.0,26,0.00,,,0.00,WeatherCatV1.15B25,2013-04-06 21:35:00,
2013-04-06 16:40:00,70.9,34.3,29.52,NNW,329,6.0,7.0,26,0.00,,,0.00,WeatherCatV1.15B25,2013-04-06 21:40:00,
2013-04-06 16:45:00,70.4,33.9,29.52,NW,306,7.0,9.0,26,0.00,,,0.00,WeatherCatV1.15B25,2013-04-06 21:45:00,
2013-04-06 16:50:00,69.8,34.3,29.52,NW,325,7.0,12.0,27,0.00,,,0.00,WeatherCatV1.15B25,2013-04-06 21:50:00,
2013-04-06 16:55:00,69.3,33.9,29.52,WNW,288,5.0,13.0,27,0.00,,,0.00,WeatherCatV1.15B25,2013-04-06 21:55:00,
2013-04-06 17:00:00,69.6,33.2,29.52,WNW,289,10.0,17.0,26,0.00,,,0.00,WeatherCatV1.15B25,2013-04-06 22:00:00,
2013-04-06 17:05:00,69.9,34.4,29.52,NNW,335,6.0,7.0,27,0.00,,,0.00,WeatherCatV1.15B25,2013-04-06 22:05:00,
2013-04-06 17:10:00,69.9,33.4,29.52,WNW,301,14.0,16.0,26,0.00,,,0.00,WeatherCatV1.15B25,2013-04-06 22:10:00,
2013-04-06 17:15:00,69.8,33.4,29.53,NNW,336,11.0,14.0,26,0.00,,,0.00,WeatherCatV1.15B25,2013-04-06 22:15:00,
2013-04-06 17:20:00,69.8,33.4,29.53,NW,315,4.0,14.0,26,0.00,,,0.00,WeatherCatV1.15B25,2013-04-06 22:20:00,
2013-04-06 17:25:00,69.9,34.4,29.53,NW,319,3.0,7.0,27,0.00,,,0.00,WeatherCatV1.15B25,2013-04-06 22:25:00,
2013-04-06 17:30:00,70.1,34.6,29.54,NW,314,1.0,7.0,27,0.00,,,0.00,WeatherCatV1.15B25,2013-04-06 22:30:00,
2013-04-06 17:35:00,70.3,33.8,29.54,WNW,282,11.0,14.0,26,0.00,,,0.00,WeatherCatV1.15B25,2013-04-06 22:35:00,
2013-04-06 17:40:00,69.9,33.4,29.54,NW,314,4.0,14.0,26,0.00,,,0.00,WeatherCatV1.15B25,2013-04-06 22:40:00,
2013-04-06 17:45:00,69.8,34.3,29.55,NW,305,5.0,12.0,27,0.00,,,0.00,WeatherCatV1.15B25,2013-04-06 22:45:00,
2013-04-06 17:50:00,69.8,34.3,29.55,West,280,4.0,7.0,27,0.00,,,0.00,WeatherCatV1.15B25,2013-04-06 22:50:00,
2013-04-06 17:55:00,69.9,35.3,29.55,WNW,297,3.0,12.0,28,0.00,,,0.00,WeatherCatV1.15B25,2013-04-06 22:55:00,
2013-04-06 18:00:00,69.8,34.3,29.56,NW,311,6.0,11.0,27,0.00,,,0.00,WeatherCatV1.15B25,2013-04-06 23:00:00,
2013-04-06 18:05:00,69.8,34.3,29.56,NW,325,3.0,12.0,27,0.00,,,0.00,WeatherCatV1.15B25,2013-04-06 23:05:00,
2013-04-06 18:10:00,69.8,35.2,29.56,NW,317,5.0,7.0,28,0.00,,,0.00,WeatherCatV1.15B25,2013-04-06 23:10:00,
2013-04-06 18:15:00,69.6,34.1,29.57,NW,314,4.0,10.0,27,0.00,,,0.00,WeatherCatV1.15B25,2013-04-06 23:15:00,
2013-04-06 18:20:00,69.6,35.0,29.57,NNW,346,14.0,14.0,28,0.00,,,0.00,WeatherCatV1.15B25,2013-04-06 23:20:00,
2013-04-06 18:25:00,69.4,34.9,29.57,NW,311,6.0,7.0,28,0.00,,,0.00,WeatherCatV1.15B25,2013-04-06 23:25:00,
2013-04-06 18:30:00,69.1,34.6,29.57,NW,319,0.0,4.0,28,0.00,,,0.00,WeatherCatV1.15B25,2013-04-06 23:30:00,
2013-04-06 18:35:00,69.1,34.6,29.57,WNW,296,0.0,11.0,28,0.00,,,0.00,WeatherCatV1.15B25,2013-04-06 23:35:00,
2013-04-06 18:40:00,69.3,34.8,29.57,West,269,3.0,4.0,28,0.00,,,0.00,WeatherCatV1.15B25,2013-04-06 23:40:00,
2013-04-06 18:45:00,69.4,34.9,29.57,West,271,0.0,4.0,28,0.00,,,0.00,WeatherCatV1.15B25,2013-04-06 23:45:00,
2013-04-06 18:50:00,69.3,34.8,29.57,West,271,0.0,4.0,28,0.00,,,0.00,WeatherCatV1.15B25,2013-04-06 23:50:00,
2013-04-06 18:55:00,69.1,34.6,29.57,WNW,298,0.0,3.0,28,0.00,,,0.00,WeatherCatV1.15B25,2013-04-06 23:55:00,
2013-04-06 19:00:00,68.6,34.2,29.57,NW,313,0.0,3.0,28,0.00,,,0.00,WeatherCatV1.15B25,2013-04-07 00:00:00,
2013-04-06 19:05:00,68.1,33.8,29.57,NW,317,0.0,5.0,28,0.00,,,0.00,WeatherCatV1.15B25,2013-04-07 00:05:00,
2013-04-06 19:10:00,67.8,34.4,29.57,NW,317,0.0,1.0,29,0.00,,,0.00,WeatherCatV1.15B25,2013-04-07 00:10:00,
2013-04-06 19:15:00,67.4,34.0,29.58,NW,317,0.0,1.0,29,0.00,,,0.00,WeatherCatV1.15B25,2013-04-07 00:15:00,
2013-04-06 19:20:00,67.3,33.9,29.58,West,276,0.0,3.0,29,0.00,,,0.00,WeatherCatV1.15B25,2013-04-07 00:20:00,
2013-04-06 19:25:00,67.1,33.8,29.58,West,262,1.0,5.0,29,0.00,,,0.00,WeatherCatV1.15B25,2013-04-07 00:25:00,
2013-04-06 19:30:00,66.9,33.6,29.58,West,262,0.0,1.0,29,0.00,,,0.00,WeatherCatV1.15B25,2013-04-07 00:30:00,
2013-04-06 19:35:00,66.6,33.3,29.58,West,263,0.0,1.0,29,0.00,,,0.00,WeatherCatV1.15B25,2013-04-07 00:35:00,
2013-04-06 19:40:00,66.4,34.0,29.58,West,264,0.0,0.0,30,0.00,,,0.00,WeatherCatV1.15B25,2013-04-07 00:40:00,
2013-04-06 19:45:00,66.0,33.7,29.58,West,263,0.0,0.0,30,0.00,,,0.00,WeatherCatV1.15B25,2013-04-07 00:45:00,
2013-04-06 19:50:00,65.6,33.3,29.58,West,264,0.0,0.0,30,0.00,,,0.00,WeatherCatV1.15B25,2013-04-07 00:50:00,
2013-04-06 19:55:00,65.3,33.1,29.58,West,263,0.0,2.0,30,0.00,,,0.00,WeatherCatV1.15B25,2013-04-07 00:55:00,
2013-04-06 20:00:00,65.0,33.6,29.59,West,264,0.0,0.0,31,0.00,,,0.00,WeatherCatV1.15B25,2013-04-07 01:00:00,
2013-04-06 20:05:00,64.5,34.0,29.59,West,264,0.0,0.0,32,0.00,,,0.00,WeatherCatV1.15B25,2013-04-07 01:05:00,
2013-04-06 20:10:00,64.2,33.7,29.59,West,263,0.0,0.0,32,0.00,,,0.00,WeatherCatV1.15B25,2013-04-07 01:10:00,
2013-04-06 20:15:00,63.9,33.5,29.59,West,263,0.0,1.0,32,0.00,,,0.00,WeatherCatV1.15B25,2013-04-07 01:15:00,
2013-04-06 20:20:00,63.7,33.3,29.59,West,263,0.0,0.0,32,0.00,,,0.00,WeatherCatV1.15B25,2013-04-07 01:20:00,
2013-04-06 20:25:00,63.4,33.8,29.59,West,264,0.0,0.0,33,0.00,,,0.00,WeatherCatV1.15B25,2013-04-07 01:25:00,
2013-04-06 20:30:00,63.1,35.0,29.59,West,264,0.0,0.0,35,0.00,,,0.00,WeatherCatV1.15B25,2013-04-07 01:30:00,
2013-04-06 20:35:00,62.4,35.1,29.59,West,264,0.0,0.0,36,0.00,,,0.00,WeatherCatV1.15B25,2013-04-07 01:35:00,
2013-04-06 20:40:00,62.0,34.0,29.59,West,264,0.0,0.0,35,0.00,,,0.00,WeatherCatV1.15B25,2013-04-07 01:40:00,
2013-04-06 20:45:00,61.3,33.4,29.61,West,263,0.0,0.0,35,0.00,,,0.00,WeatherCatV1.15B25,2013-04-07 01:45:00,
2013-04-06 20:50:00,61.2,34.0,29.61,NW,309,0.0,6.0,36,0.00,,,0.00,WeatherCatV1.15B25,2013-04-07 01:50:00,
2013-04-06 20:55:00,61.6,33.7,29.61,NW,309,0.0,3.0,35,0.00,,,0.00,WeatherCatV1.15B25,2013-04-07 01:55:00,
2013-04-06 21:00:00,61.8,33.9,29.61,NW,309,0.0,0.0,35,0.00,,,0.00,WeatherCatV1.15B25,2013-04-07 02:00:00,
2013-04-06 21:05:00,61.6,34.4,29.61,NW,309,0.0,0.0,36,0.00,,,0.00,WeatherCatV1.15B25,2013-04-07 02:05:00,
2013-04-06 21:10:00,61.5,35.0,29.61,NW,309,0.0,0.0,37,0.00,,,0.00,WeatherCatV1.15B25,2013-04-07 02:10:00,
2013-04-06 21:15:00,61.3,34.1,29.61,NW,309,0.0,0.0,36,0.00,,,0.00,WeatherCatV1.15B25,2013-04-07 02:15:00,
2013-04-06 21:20:00,61.5,34.3,29.61,NW,309,0.0,0.0,36,0.00,,,0.00,WeatherCatV1.15B25,2013-04-07 02:20:00,
2013-04-06 21:25:00,61.6,34.4,29.61,NW,309,0.0,0.0,36,0.00,,,0.00,WeatherCatV1.15B25,2013-04-07 02:25:00,
2013-04-06 21:30:00,61.6,35.1,29.62,NW,309,0.0,0.0,37,0.00,,,0.00,WeatherCatV1.15B25,2013-04-07 02:30:00,
2013-04-06 21:35:00,61.2,35.4,29.62,NW,309,0.0,0.0,38,0.00,,,0.00,WeatherCatV1.15B25,2013-04-07 02:35:00,
2013-04-06 21:40:00,60.9,35.1,29.62,NW,309,0.0,0.0,38,0.00,,,0.00,WeatherCatV1.15B25,2013-04-07 02:40:00,
2013-04-06 21:45:00,60.5,35.4,29.62,NW,309,2.0,2.0,39,0.00,,,0.00,WeatherCatV1.15B25,2013-04-07 02:45:00,
2013-04-06 21:50:00,60.5,35.4,29.62,NW,309,0.0,1.0,39,0.00,,,0.00,WeatherCatV1.15B25,2013-04-07 02:50:00,
2013-04-06 21:55:00,60.5,36.1,29.62,NW,309,0.0,1.0,40,0.00,,,0.00,WeatherCatV1.15B25,2013-04-07 02:55:00,
2013-04-06 22:00:00,60.9,36.4,29.63,NW,309,0.0,1.0,40,0.00,,,0.00,WeatherCatV1.15B25,2013-04-07 03:00:00,
2013-04-06 22:05:00,60.9,37.0,29.63,NW,309,0.0,1.0,41,0.00,,,0.00,WeatherCatV1.15B25,2013-04-07 03:05:00,
2013-04-06 22:10:00,60.7,37.5,29.63,NW,308,0.0,2.0,42,0.00,,,0.00,WeatherCatV1.15B25,2013-04-07 03:10:00,
2013-04-06 22:15:00,60.7,38.1,29.64,NW,308,0.0,1.0,43,0.00,,,0.00,WeatherCatV1.15B25,2013-04-07 03:15:00,
2013-04-06 22:20:00,60.7,38.1,29.64,NW,308,1.0,1.0,43,0.00,,,0.00,WeatherCatV1.15B25,2013-04-07 03:20:00,
2013-04-06 22:25:00,60.5,37.9,29.64,NW,308,0.0,0.0,43,0.00,,,0.00,WeatherCatV1.15B25,2013-04-07 03:25:00,
2013-04-06 22:30:00,60.5,37.9,29.64,NW,308,0.0,0.0,43,0.00,,,0.00,WeatherCatV1.15B25,2013-04-07 03:30:00,
2013-04-06 22:35:00,60.2,38.2,29.64,NW,308,0.0,1.0,44,0.00,,,0.00,WeatherCatV1.15B25,2013-04-07 03:35:00,
2013-04-06 22:40:00,59.9,37.9,29.64,NW,308,0.0,0.0,44,0.00,,,0.00,WeatherCatV1.15B25,2013-04-07 03:40:00,
2013-04-06 22:45:00,59.8,38.4,29.64,NW,308,0.0,1.0,45,0.00,,,0.00,WeatherCatV1.15B25,2013-04-07 03:45:00,
2013-04-06 22:50:00,59.6,38.2,29.64,NW,308,0.0,0.0,45,0.00,,,0.00,WeatherCatV1.15B25,2013-04-07 03:50:00,
2013-04-06 22:55:00,59.3,38.5,29.64,NW,308,0.0,0.0,46,0.00,,,0.00,WeatherCatV1.15B25,2013-04-07 03:55:00,
2013-04-06 23:00:00,58.9,38.2,29.64,NW,308,0.0,0.0,46,0.00,,,0.00,WeatherCatV1.15B25,2013-04-07 04:00:00,
2013-04-06 23:01:00,58.6,38.4,29.64,NW,308,0.0,0.0,47,0.00,,,0.00,WeatherCatV1.15B25,2013-04-07 04:01:00,
2013-04-06 23:06:00,57.8,37.7,29.64,NW,308,0.0,0.0,47,0.00,,,0.00,WeatherCatV1.15B25,2013-04-07 04:06:00,
2013-04-06 23:09:00,57.5,38.0,29.64,NW,308,0.0,0.0,48,0.00,,,0.00,WeatherCatV1.15B25,2013-04-07 04:09:00,
2013-04-06 23:14:00,56.7,38.8,29.64,NW,308,0.0,0.0,51,0.00,,,0.00,WeatherCatV1.15B25,2013-04-07 04:14:00,
2013-04-06 23:16:00,56.5,39.1,29.65,NW,308,0.0,0.0,52,0.00,,,0.00,WeatherCatV1.15B25,2013-04-07 04:16:00,
2013-04-06 23:21:00,55.7,38.8,29.65,NW,308,0.0,0.0,53,0.00,,,0.00,WeatherCatV1.15B25,2013-04-07 04:21:00,
2013-04-06 23:26:00,55.3,38.9,29.65,NE,44,6.0,9.0,54,0.00,,,0.00,WeatherCatV1.15B25,2013-04-07 04:26:00,
2013-04-06 23:31:00,55.0,38.7,29.65,NE,44,0.0,0.0,54,0.00,,,0.00,WeatherCatV1.15B25,2013-04-07 04:31:00,
2013-04-06 23:36:00,54.7,38.4,29.65,NE,44,0.0,0.0,54,0.00,,,0.00,WeatherCatV1.15B25,2013-04-07 04:36:00,
2013-04-06 23:41:00,54.5,38.7,29.65,NE,44,0.0,0.0,55,0.00,,,0.00,WeatherCatV1.15B25,2013-04-07 04:41:00,
2013-04-06 23:46:00,54.4,38.6,29.66,NE,44,0.0,0.0,55,0.00,,,0.00,WeatherCatV1.15B25,2013-04-07 04:46:00,
2013-04-06 23:51:00,54.2,38.4,29.66,NE,44,0.0,0.0,55,0.00,,,0.00,WeatherCatV1.15B25,2013-04-07 04:51:00,
2013-04-06 23:56:00,54.1,38.8,29.66,NE,44,0.0,0.0,56,0.00,,,0.00,WeatherCatV1.15B25,2013-04-07 04:56:00,